Regional Weather Roundup
Issued by NWS State College, PA

Home | Current Version | Previous Version | Graphics & Text | Print | Product List | Glossary Off
Versions: 1 2 3 4 5 6 7 8 9 10 11 12 13 14 15 16 17 18 19 20 21 22 23 24 25 26 27 28 29 30 31 32 33 34 35 36 37 38 39 40 41 42 43 44 45 46 47 48 49 50

000
ASUS41 KCTP 171210
RWRCTP

REGIONAL WEATHER ROUNDUP
NATIONAL WEATHER SERVICE STATE COLLEGE PA
700 AM EST WED JAN 17 2018

Note: "fair" indicates few or no clouds below 12,000 feet with no
significant weather and/or obstructions to visibility.

* = STATION THAT DOES NOT REPORT PRECIPITATION /E.G. RAIN...SNOW...ETC/
    THUNDER OR FOG.

PAZ002>004-007>009-013>016-020>023-029>032-171300-
WESTERN PENNSYLVANIA

CITY           SKY/WX    TMP DP  RH WIND       PRES   REMARKS
ERIE           CLOUDY     5   0  79 S10       30.46R HAZE    WCI -10
MEADVILLE      LGT SNOW   0  -2  91 SW6       30.41R FOG     WCI -12
FRANKLIN*      LGT SNOW   2  -2  83 W7        30.40R FOG     WCI -11
NEW CASTLE     FLURRIES   3   0  87 VRB5      30.47S WCI  -6
BEAVER COUNTY  LGT SNOW   3   0  85 S5        30.46  WCI  -6
BUTLER*        FLURRIES   3   0  87 SW6       30.46R WCI  -8
PITTSBURGH INT FLURRIES   3   0  87 W12       30.46R WCI -13
PITTSBURGH     CLOUDY     4  -1  80 W7        30.45R WCI  -8
INDIANA*       CLOUDY     5   1  85 W8        30.47R FOG     WCI  -8
LATROBE        FLURRIES   7   1  78 W3        30.48R
WASHINGTON CO* FLURRIES   5   2  87 W7        30.51R WCI  -7
$$

PAZ004>006-010>012-017>019-024>028-033>037-041-042-045-046-049>053-171300-
CENTRAL PENNSYLVANIA

CITY           SKY/WX    TMP DP  RH WIND       PRES   REMARKS
BRADFORD       CLOUDY     5   3  91 W3        30.29S FOG
DUBOIS         CLOUDY     1  -3  83 W6        30.35R FOG     WCI -10
CLEARFIELD     FAIR       2   0  91 SW6       30.38R WCI  -9
JOHNSTOWN      LGT SNOW   5   2  87 W8        30.30R FOG     WCI  -8
ALTOONA        CLOUDY     9   3  77 NW10      30.36R WCI  -5
STATE COLLEGE  CLOUDY     9   3  78 NW9       30.39R WCI  -5
WILLIAMSPORT   CLOUDY    18  10  71 W18       30.39R WCI   2
SELINSGROVE    CLOUDY    33   9  36 NW9       30.41R
FT INDIANTOWN  LGT SNOW  21  20  94 CALM      30.34S FOG
CAPITAL CITY   LGT SNOW  21  17  84 NW8       30.39R FOG     WCI  11
HARRISBURG     LGT SNOW  21  17  84 NW15      30.37S FOG     WCI   8
YORK           LGT SNOW  20  18  92 NW10      30.37R FOG     WCI   9
$$

PAZ038>040-043-044-047-048-054-055-060>062-067>071-171300-
EASTERN PENNSYLVANIA

CITY           SKY/WX    TMP DP  RH WIND       PRES   REMARKS
SCRANTON       LGT SNOW  25  25 100 SW8       30.28F FOG
MOUNT POCONO   LGT SNOW  24  23  96 W10       30.20R FOG     WCI  14
ALLENTOWN      LGT SNOW  30  25  81 NW9       30.30S
QUAKERTOWN*    CLOUDY    28  27  93 MISG      30.30R
READING        LGT SNOW N/A N/A N/A NW12      30.33R
LANCASTER      LGT SNOW  24  22  91 NW14      30.34S VSB 1   WCI  12
COATESVILLE    LGT SNOW  28  27  93 NW12      30.30S
POTTSTOWN      LGT SNOW  28  27  96 NW8       30.32R VSB 1
BLUE BELL      CLOUDY    30  30 100 NW3       30.31R
DOYLESTOWN     LGT SNOW  31  29  92 NW9       30.28R FOG
WILLOW GROVE   NOT AVBL
NORTH PHILA    LGT SNOW  34  31  88 NW9       30.30R FOG
PHILADELPHIA   LGT SNOW  33  30  88 NW13      30.31R FOG
$$



USA.gov is the U.S. government's official web portal to all federal, state and local government web resources and services.